Weather History for KEYW - May, 2012

Change the Weather History Date:

Wednesday, May 16, 2012

  Actual Average Record
Temperature  
Mean Temperature 80 °F 80 °F  
Max Temperature 83 °F 85 °F 90 °F (1967)
Min Temperature 76 °F 76 °F 64 °F (1917)
Degree Days  
Heating Degree Days 0 0  
Month to date heating degree days 0 0  
Since 1 July heating degree days 28 73  
Cooling Degree Days 15 15  
Month to date cooling degree days 249 230  
Year to date cooling degree days 1453 1184  
Growing Degree Days 28 (Base 50)    
Moisture  
Dew Point 72 °F    
Average Humidity 77    
Maximum Humidity 85    
Minimum Humidity 69    
Precipitation  
Precipitation T in 0.10 in 2.89 in (1923)
Month to date precipitation 0.08 1.15  
Year to date precipitation 12.40 8.78  
Snow  
Snow 0.00 in - - ()
Month to date snowfall 0.0  
Since 1 July snowfall 0.0  
Snow Depth 0.00 in    
Sea Level Pressure  
Sea Level Pressure 29.98 in    
Wind  
Wind Speed 6 mph (East)    
Max Wind Speed 16 mph    
Max Gust Speed 23 mph    
Visibility 10 miles    
Events Thunderstorm    
T = Trace of Precipitation, MM = Missing Value Source: NWS Daily Summary

Daily Weather History Graph

Daily Weather History Graph

Search for Another Location

Airport or City:

Trip Planner

Search our weather history database for the weather conditions in past years. The results will help you decide how hot, cold, wet, or windy it might be!

Date:

Astronomy

May. 16, 2012 Rise Set
Actual Time 6:42 AM EDT 8:04 PM EDT
Civil Twilight 6:18 AM EDT 8:29 PM EDT
Nautical Twilight 5:48 AM EDT 8:58 PM EDT
Astronomical Twilight 5:18 AM EDT 9:28 PM EDT
Moon 3:49 AM EDT (5/16) 4:37 PM EDT (5/16)
Length of Visible Light 14h 10m
Length of Day
13h 21m
Waning Crescent, 16% of the Moon is Illuminated
May 16
Waning Crescent
May 20
New
May 28
First Quarter
Jun 4
Full
Jun 11
Last Quarter

Hourly Weather History & Observations

Time (EDT) Temp. Heat Index Dew Point Humidity Pressure Visibility Wind Dir Wind Speed Gust Speed Precip Events Conditions
12:18 AM 80.6 °F 85.4 °F 73.4 °F 79% 30.01 in 10.0 mi NNE 6.9 mph - N/A Thunderstorm Thunderstorm
12:57 AM 78.8 °F - 69.8 °F 74% 30.02 in - NE 5.8 mph - N/A Thunderstorm Thunderstorm
1:53 AM 75.9 °F - 70.0 °F 82% 30.01 in 10.0 mi NNW 4.6 mph - N/A Thunderstorm Overcast
2:03 AM 75.2 °F - 69.8 °F 83% 30.00 in 10.0 mi North 4.6 mph - N/A   Overcast
2:53 AM 75.9 °F - 70.0 °F 82% 29.99 in 10.0 mi Calm Calm - N/A   Partly Cloudy
3:53 AM 78.1 °F - 71.1 °F 79% 29.99 in 10.0 mi NE 4.6 mph - N/A   Clear
4:53 AM 78.1 °F - 71.1 °F 79% 29.98 in 10.0 mi NE 5.8 mph - N/A   Partly Cloudy
5:53 AM 77.0 °F - 71.1 °F 82% 29.97 in 10.0 mi NNE 8.1 mph - N/A   Clear
6:53 AM 78.1 °F - 71.1 °F 79% 29.99 in 10.0 mi NE 3.5 mph - N/A   Clear
7:53 AM 79.0 °F - 72.0 °F 79% 29.99 in 10.0 mi NE 5.8 mph - N/A   Clear
8:53 AM 80.1 °F 83.2 °F 70.0 °F 71% 30.01 in 10.0 mi East 6.9 mph - N/A   Clear
9:53 AM 80.1 °F 83.6 °F 71.1 °F 74% 30.01 in 10.0 mi East 6.9 mph - N/A   Clear
10:53 AM 81.0 °F 85.2 °F 72.0 °F 74% 30.02 in 10.0 mi East 8.1 mph - N/A   Clear
11:53 AM 81.0 °F 85.8 °F 73.0 °F 77% 30.02 in 10.0 mi ESE 10.4 mph - N/A   Clear
12:53 PM 82.0 °F 87.9 °F 73.9 °F 76% 30.03 in 10.0 mi ESE 8.1 mph - N/A   Clear
1:53 PM 82.0 °F 87.4 °F 73.0 °F 74% 30.01 in 10.0 mi ESE 8.1 mph - N/A   Clear
2:53 PM 81.0 °F 85.8 °F 73.0 °F 77% 29.99 in 10.0 mi ESE 8.1 mph - N/A   Clear
3:53 PM 81.0 °F 86.2 °F 73.9 °F 79% 29.97 in 10.0 mi SSE 4.6 mph - N/A   Clear
4:53 PM 81.0 °F 86.7 °F 75.0 °F 82% 29.96 in 10.0 mi SSE 5.8 mph - N/A   Clear
5:53 PM 81.0 °F 86.7 °F 75.0 °F 82% 29.93 in 10.0 mi SE 5.8 mph - 0.00 in   Clear
6:53 PM 80.1 °F 85.1 °F 75.0 °F 85% 29.92 in 10.0 mi ESE 5.8 mph - 0.00 in   Scattered Clouds
7:53 PM 80.1 °F 85.1 °F 75.0 °F 85% 29.93 in 10.0 mi SE 5.8 mph - 0.00 in   Partly Cloudy
8:53 PM 80.1 °F 84.5 °F 73.9 °F 81% 29.95 in 10.0 mi SE 3.5 mph - N/A   Mostly Cloudy
9:53 PM 80.1 °F 84.2 °F 73.0 °F 79% 29.96 in 10.0 mi ESE 4.6 mph - N/A   Mostly Cloudy
10:53 PM 80.1 °F 84.2 °F 73.0 °F 79% 29.97 in 10.0 mi ESE 4.6 mph - 0.00 in   Partly Cloudy
11:53 PM 80.1 °F 84.2 °F 73.0 °F 79% 29.96 in 10.0 mi ESE 4.6 mph - N/A   Scattered Clouds